Terminal Aerodrome Forecast
Issued by NWS

Home | Current Version | Previous Version | Text Only | Print | Product List | Glossary Off
Versions: 1 2 3 4 5 6 7 8 9 10 11 12 13 14 15 16 17

000
FTUS43 KMPX 200520
TAFRNH
TAF
KRNH 200520Z 2006/2106 07008KT P6SM OVC080
     FM201600 08010KT 6SM -RA BR SCT020 OVC040
     FM201800 08012G18KT 4SM RA BR SCT010 OVC015
     FM202200 08012G18KT 3SM RA BR OVC008
     FM210200 10008KT 2SM -DZ BR OVC005=

USA.gov is the U.S. government's official web portal to all federal, state and local government web resources and services.